Weather History for China Lake, CA

Change the Weather History Date:

Thursday, December 20, 2012

  Actual Average Record
Temperature  
Mean Temperature 30 °F -  
Max Temperature 48 °F 54 °F 69 °F (1999)
Min Temperature 12 °F 29 °F 12 °F (2012)
Degree Days  
Heating Degree Days 35    
Moisture  
Dew Point -2 °F    
Average Humidity 28    
Maximum Humidity 43    
Minimum Humidity 16    
Precipitation  
Precipitation 0.00 in - - ()
Sea Level Pressure  
Sea Level Pressure 30.34 in    
Wind  
Wind Speed 3 mph (SSW)    
Max Wind Speed 9 mph    
Max Gust Speed -    
Visibility 10 miles    
Events      
Averages and records for this station are not official NWS values.
T = Trace of Precipitation, MM = Missing Value Source: NWS Daily Summary

Daily Weather History Graph

Daily Weather History Graph

Search for Another Location

Airport:

Trip Planner

Search our weather history database for the weather conditions in past years. The results will help you decide how hot, cold, wet, or windy it might be!

Date:

Astronomy

Dec. 20, 2012 Rise Set
Actual Time 6:56 AM PST 4:40 PM PST
Civil Twilight 6:28 AM PST 5:09 PM PST
Nautical Twilight 5:56 AM PST 5:41 PM PST
Astronomical Twilight 5:24 AM PST 6:12 PM PST
Moon 11:51 AM PST (12/20) No Moon Set
Length of Visible Light 10h 41m
Length of Day
9h 44m
First Quarter, 56% of the Moon is Illuminated
Dec 20
First Quarter
Dec 28
Full
Jan 4
Last Quarter
Jan 11
New
Jan 18
First Quarter

Hourly Weather History & Observations

Time (PST) Temp. Windchill Dew Point Humidity Pressure Visibility Wind Dir Wind Speed Gust Speed Precip Events Conditions
12:56 AM 21.9 °F 13.4 °F -4.0 °F 32% 30.42 in 10.0 mi SSW 6.9 mph - N/A   Clear
1:56 AM 19.9 °F - -4.0 °F 35% 30.42 in 10.0 mi Calm Calm - N/A   Clear
2:56 AM 17.1 °F 8.7 °F -6.0 °F 36% 30.40 in 10.0 mi SSW 5.8 mph - N/A   Clear
3:56 AM 17.1 °F 8.7 °F -5.1 °F 37% 30.39 in 10.0 mi SW 5.8 mph - N/A   Clear
4:56 AM 16.0 °F 6.3 °F -5.1 °F 39% 30.39 in 10.0 mi South 6.9 mph - N/A   Clear
5:56 AM 16.0 °F - -5.1 °F 39% 30.41 in 10.0 mi Calm Calm - N/A   Clear
6:56 AM 12.9 °F - -6.0 °F 43% 30.42 in 10.0 mi Calm Calm - N/A   Partly Cloudy
7:56 AM 21.0 °F - -2.9 °F 35% 30.42 in 10.0 mi Calm Calm - N/A   Partly Cloudy
8:56 AM 27.0 °F - -2.0 °F 29% 30.43 in 10.0 mi Calm Calm - N/A   Partly Cloudy
9:56 AM 33.1 °F - -0.9 °F 23% 30.43 in 10.0 mi Calm Calm - N/A   Partly Cloudy
10:56 AM 39.9 °F - -0.0 °F 19% 30.39 in 10.0 mi Calm Calm - N/A   Partly Cloudy
11:56 AM 43.0 °F - 1.9 °F 18% 30.35 in 10.0 mi Calm Calm - N/A   Clear
12:56 PM 46.0 °F - 1.9 °F 16% 30.30 in 10.0 mi Calm Calm - N/A   Clear
1:56 PM 46.9 °F - 1.9 °F 16% 30.28 in 10.0 mi Calm Calm - N/A   Clear
2:56 PM 46.9 °F - 1.9 °F 16% 30.26 in 10.0 mi East 4.6 mph - N/A   Clear
3:56 PM 48.0 °F - 3.0 °F 16% 30.25 in 10.0 mi East 3.5 mph - N/A   Clear
4:56 PM 43.0 °F - 3.9 °F 20% 30.26 in 10.0 mi Calm Calm - N/A   Clear
5:56 PM 35.1 °F 27.9 °F -0.9 °F 22% 30.27 in 10.0 mi West 9.2 mph - N/A   Clear
6:56 PM 30.0 °F - -2.0 °F 25% 30.29 in 10.0 mi Calm Calm - N/A   Clear
7:56 PM 30.9 °F 24.3 °F -2.0 °F 24% 30.28 in 10.0 mi SSW 6.9 mph - N/A   Clear
8:56 PM 27.0 °F 18.0 °F -2.0 °F 29% 30.28 in 10.0 mi SSW 9.2 mph - N/A   Clear
9:56 PM 26.1 °F 16.8 °F -0.9 °F 31% 30.28 in 10.0 mi SSW 9.2 mph - N/A   Clear
10:56 PM 26.1 °F - -0.9 °F 31% 30.27 in 10.0 mi Calm Calm - N/A   Clear
11:56 PM 19.9 °F - -6.0 °F 32% 30.26 in 10.0 mi Calm Calm - N/A   Clear